This is the latest recevied weather packets stored in our database for station/object KE0LFX. If no packets are shown the sender has not sent any weather packets the latest 10 day(s).
| Time | Temp. | Humidity | Pressure | Rain* | Wind** | Luminosity | Snow |
|---|---|---|---|---|---|---|---|
| 1777249192 | 21.11° C | 57% | 1014.8 hPa | 0 mm | - | 12 W/m² | - |
| 1777248889 | 21.11° C | 56% | 1014.4 hPa | 0 mm | - | 17 W/m² | - |
| 1777248586 | 21.67° C | 56% | 1014.4 hPa | 0 mm | - | 22 W/m² | - |
| 1777248283 | 21.67° C | 56% | 1014.6 hPa | 0 mm | - | 27 W/m² | - |
| 1777247978 | 21.67° C | 56% | 1014.5 hPa | 0 mm | - | 33 W/m² | - |
| 1777247678 | 21.67° C | 55% | 1014.8 hPa | 0 mm | - | 40 W/m² | - |
| 1777247376 | 21.67° C | 55% | 1014.5 hPa | 0 mm | - | 48 W/m² | - |
| 1777247073 | 21.67° C | 55% | 1014.6 hPa | 0 mm | - | 55 W/m² | - |
| 1777246770 | 21.67° C | 54% | 1014.5 hPa | 0 mm | - | 62 W/m² | - |
| 1777246466 | 21.67° C | 54% | 1014.7 hPa | 0 mm | - | 66 W/m² | - |
| 1777246163 | 21.67° C | 55% | 1014.5 hPa | 0 mm | - | 71 W/m² | - |
| 1777245861 | 22.22° C | 54% | 1014.5 hPa | 0 mm | - | 76 W/m² | - |
| 1777245559 | 22.22° C | 54% | 1014.6 hPa | 0 mm | - | 84 W/m² | - |
| 1777245254 | 22.22° C | 55% | 1014.7 hPa | 0 mm | - | 90 W/m² | - |
| 1777244950 | 22.22° C | 54% | 1014.8 hPa | 0 mm | - | 97 W/m² | - |
| 1777244646 | 22.22° C | 54% | 1014.9 hPa | 0 mm | - | 105 W/m² | - |
| 1777244342 | 22.22° C | 54% | 1014.6 hPa | 0 mm | - | 111 W/m² | - |
| 1777244040 | 22.22° C | 54% | 1014.8 hPa | 0 mm | - | 121 W/m² | - |
| 1777243737 | 22.22° C | 54% | 1014.7 hPa | 0 mm | - | 128 W/m² | - |
| 1777243434 | 22.78° C | 54% | 1014.9 hPa | 0 mm | - | 141 W/m² | - |
| 1777243130 | 22.78° C | 54% | 1014.8 hPa | 0 mm | - | 141 W/m² | - |
| 1777242826 | 22.78° C | 54% | 1014.7 hPa | 0 mm | - | 142 W/m² | - |
| 1777242523 | 22.78° C | 54% | 1014.9 hPa | 0 mm | - | 143 W/m² | - |
| 1777242219 | 22.78° C | 53% | 1014.9 hPa | 0 mm | - | 150 W/m² | - |
| 1777241917 | 22.78° C | 53% | 1015.2 hPa | 0 mm | - | 154 W/m² | - |
* Rain latest hour (hover to see other rain measurements)
** Current wind speed in m/s (hover to see current wind gust speed)